ZIYUAN 3-2 (ZY 3-2)

Last updated on Mon Oct 14 2024 00:02:24 GMT+0000 (Coordinated Universal Time)

1 41556U 16033A 24287.55137532 .00016163 00000+0 73070-3 0 9994 2 41556 97.4463 1.7013 0007137 233.9061 126.1514 15.20994207464991
UTC large
Height (km)
Speed (km/s)
/
Latitude / Longitude
Inclination (degrees)
Orbital Period (minutes)
Azimuth
Elevation
Range (km)
Doppler Factor

Next 0 passes for location: London (51.5072 / 0.1276)

Sorry there are no passes over London.